GFSMW_500_temp_132.txt.gz
Temp
-12 -13 -13 -12 -12 -12 -12 -12 -13 -13 -13 -13 -13 -13 -13 -13 -13 -13 -13 -13 -13 -13 -12 -12 -12 -12 -12 -13 -13 -13 -12 -12 -12 -11 -12 -12 -11 -11 -11 -12 -12 -13 -13
-13 -13 -13 -13 -13 -13 -13 -13 -13 -13 -13 -13 -13 -13 -14 -14 -14 -14 -14 -15 -16 -15 -14 -14 -13 -13 -13 -13 -13 -14 -14 -13 -13 -12 -12 -11 -11 -11 -11 -11 -12 -12 -12
-13 -13 -14 -14 -14 -14 -14 -14 -14 -14 -14 -14 -15 -15 -15 -16 -16 -16 -16 -17 -17 -17 -17 -17 -16 -15 -15 -15 -15 -15 -15 -15 -14 -13 -13 -12 -11 -12 -12 -11 -11 -12 -12
-14 -14 -14 -15 -14 -15 -15 -15 -15 -15 -16 -16 -17 -17 -17 -18 -18 -18 -18 -18 -18 -19 -19 -18 -18 -17 -17 -17 -17 -16 -16 -16 -16 -15 -14 -13 -12 -12 -12 -11 -11 -12 -12
-15 -15 -15 -15 -16 -16 -16 -16 -17 -17 -17 -18 -18 -18 -18 -18 -18 -18 -19 -19 -19 -19 -19 -18 -19 -18 -18 -18 -17 -17 -17 -17 -16 -16 -14 -14 -14 -13 -12 -11 -11 -11 -12
-16 -17 -17 -17 -18 -17 -17 -18 -18 -18 -18 -18 -18 -18 -18 -18 -18 -18 -18 -19 -19 -19 -19 -19 -19 -18 -18 -18 -18 -18 -18 -18 -17 -16 -16 -15 -14 -13 -13 -12 -11 -10 -12
-18 -18 -18 -19 -19 -18 -18 -19 -18 -19 -19 -19 -19 -19 -19 -19 -19 -19 -18 -19 -19 -19 -19 -19 -18 -18 -18 -18 -18 -19 -18 -18 -18 -17 -17 -16 -15 -14 -13 -13 -12 -12 -12
-19 -19 -19 -19 -19 -19 -19 -19 -19 -19 -20 -20 -19 -19 -20 -19 -18 -19 -19 -19 -19 -19 -19 -18 -18 -18 -18 -18 -19 -18 -18 -18 -18 -17 -17 -16 -16 -15 -15 -14 -13 -13 -13
-19 -19 -19 -19 -19 -19 -19 -20 -20 -21 -21 -20 -20 -19 -19 -19 -19 -19 -19 -19 -19 -18 -19 -18 -18 -17 -17 -18 -18 -18 -18 -18 -18 -18 -17 -17 -17 -16 -16 -15 -14 -13 -13
-20 -20 -20 -20 -20 -20 -20 -21 -21 -21 -21 -21 -20 -20 -19 -19 -19 -19 -18 -18 -18 -18 -17 -17 -17 -17 -17 -17 -17 -17 -17 -17 -18 -18 -17 -17 -17 -17 -16 -16 -15 -14 -14
-20 -20 -20 -20 -20 -20 -21 -22 -22 -22 -21 -21 -20 -20 -19 -19 -19 -19 -18 -18 -18 -18 -18 -18 -17 -17 -17 -17 -17 -17 -17 -17 -17 -18 -17 -17 -17 -17 -16 -16 -16 -15 -15
-20 -20 -20 -20 -20 -21 -22 -22 -22 -22 -22 -21 -21 -20 -20 -20 -20 -19 -19 -18 -18 -17 -17 -17 -17 -17 -17 -17 -17 -17 -16 -16 -17 -17 -17 -17 -17 -17 -17 -16 -16 -16 -16
-21 -20 -21 -20 -21 -22 -22 -22 -22 -22 -22 -22 -21 -21 -21 -20 -20 -20 -19 -19 -19 -18 -17 -17 -17 -17 -17 -17 -17 -16 -16 -16 -16 -16 -17 -17 -17 -17 -17 -17 -17 -16 -16
-21 -21 -21 -21 -22 -22 -22 -22 -22 -22 -22 -22 -22 -22 -21 -21 -21 -20 -20 -19 -19 -18 -18 -18 -17 -17 -17 -16 -16 -16 -16 -16 -16 -16 -16 -16 -17 -17 -17 -17 -17 -17 -16
-21 -21 -22 -22 -23 -23 -23 -22 -21 -21 -21 -21 -21 -21 -21 -21 -20 -20 -20 -19 -19 -18 -18 -18 -17 -17 -17 -17 -17 -17 -16 -17 -17 -17 -17 -16 -16 -17 -17 -17 -17 -17 -17
-21 -22 -23 -23 -23 -23 -22 -22 -22 -22 -22 -21 -21 -21 -21 -20 -20 -20 -20 -20 -20 -20 -20 -19 -19 -19 -18 -17 -17 -17 -16 -16 -17 -18 -18 -18 -17 -17 -17 -17 -17 -17 -17
-22 -23 -23 -23 -23 -23 -23 -23 -24 -24 -23 -23 -22 -21 -21 -21 -22 -22 -22 -22 -22 -21 -21 -21 -21 -20 -20 -20 -19 -18 -17 -17 -17 -17 -18 -18 -18 -16 -16 -16 -17 -17 -17
-23 -23 -23 -23 -24 -24 -24 -25 -25 -25 -25 -24 -24 -23 -23 -23 -23 -23 -23 -22 -22 -22 -21 -21 -21 -21 -21 -21 -21 -20 -19 -19 -18 -18 -18 -18 -18 -17 -17 -16 -16 -16 -16
-23 -24 -24 -24 -24 -25 -25 -25 -26 -26 -26 -26 -25 -25 -25 -24 -23 -23 -22 -22 -22 -22 -21 -21 -21 -20 -20 -20 -20 -21 -21 -21 -20 -19 -18 -17 -18 -18 -17 -17 -16 -16 -16
-24 -24 -24 -24 -25 -25 -25 -26 -26 -27 -27 -27 -27 -26 -26 -24 -24 -23 -23 -24 -23 -23 -23 -23 -22 -22 -21 -21 -21 -21 -20 -20 -21 -21 -20 -19 -18 -17 -17 -17 -18 -18 -17
-24 -24 -24 -25 -25 -25 -26 -26 -26 -27 -27 -27 -26 -26 -25 -25 -26 -25 -25 -24 -24 -23 -23 -23 -23 -23 -24 -24 -23 -23 -23 -21 -20 -20 -20 -20 -19 -18 -18 -18 -17 -18 -17
-24 -24 -25 -25 -25 -25 -26 -26 -26 -26 -26 -27 -27 -26 -26 -26 -26 -25 -25 -24 -24 -24 -23 -23 -23 -23 -23 -23 -23 -23 -23 -23 -22 -23 -22 -21 -20 -20 -20 -19 -18 -18 -18
-24 -24 -25 -25 -25 -25 -26 -26 -26 -26 -26 -27 -26 -26 -26 -26 -26 -25 -25 -24 -24 -24 -23 -22 -22 -23 -22 -23 -23 -23 -23 -22 -22 -22 -22 -22 -22 -21 -20 -20 -20 -19 -19
-24 -24 -24 -25 -25 -25 -26 -26 -26 -26 -27 -26 -26 -27 -27 -25 -25 -24 -24 -24 -24 -24 -24 -23 -23 -23 -23 -23 -23 -23 -23 -23 -22 -22 -22 -22 -22 -22 -22 -22 -21 -21 -20
-24 -24 -25 -25 -25 -26 -26 -26 -26 -27 -26 -25 -26 -26 -26 -25 -25 -25 -24 -24 -24 -24 -23 -23 -23 -23 -23 -24 -24 -24 -24 -24 -23 -23 -23 -22 -22 -22 -22 -22 -22 -22 -21
-24 -24 -25 -25 -25 -26 -26 -25 -26 -26 -25 -26 -26 -26 -26 -25 -25 -25 -24 -24 -24 -24 -24 -23 -23 -23 -23 -23 -23 -23 -23 -23 -23 -24 -24 -23 -23 -23 -23 -23 -22 -22 -22

GFSMW_500_temp_135.txt.gz
Temp
-12 -12 -12 -12 -12 -12 -12 -12 -12 -13 -13 -13 -13 -13 -13 -13 -14 -14 -13 -13 -13 -13 -12 -12 -12 -12 -12 -12 -12 -13 -13 -13 -13 -13 -13 -13 -12 -12 -12 -11 -12 -12 -11
-12 -12 -13 -13 -13 -13 -13 -13 -13 -13 -13 -13 -14 -14 -14 -14 -14 -14 -14 -14 -14 -14 -14 -13 -13 -13 -13 -13 -12 -13 -13 -13 -13 -13 -13 -13 -13 -12 -12 -12 -12 -11 -12
-13 -13 -13 -13 -13 -13 -13 -14 -14 -14 -14 -14 -14 -14 -14 -15 -15 -15 -15 -16 -16 -16 -16 -16 -15 -15 -14 -14 -13 -13 -14 -14 -15 -14 -14 -14 -14 -13 -12 -12 -11 -12 -12
-13 -13 -14 -14 -14 -14 -14 -14 -15 -15 -15 -15 -15 -16 -16 -16 -17 -17 -17 -17 -17 -18 -18 -18 -18 -18 -17 -17 -17 -17 -17 -16 -17 -17 -17 -16 -15 -15 -13 -13 -13 -12 -12
-15 -15 -15 -15 -15 -15 -15 -16 -16 -16 -16 -16 -17 -17 -17 -17 -18 -18 -18 -18 -18 -18 -18 -18 -18 -19 -19 -19 -19 -19 -18 -18 -18 -18 -18 -17 -17 -17 -15 -13 -12 -13 -12
-16 -16 -16 -16 -16 -16 -17 -17 -17 -17 -17 -17 -18 -18 -18 -18 -18 -18 -18 -18 -18 -18 -18 -18 -18 -19 -19 -19 -18 -19 -19 -18 -18 -18 -18 -18 -17 -17 -17 -15 -13 -13 -13
-17 -18 -17 -17 -18 -18 -18 -18 -18 -18 -18 -18 -18 -18 -18 -19 -19 -19 -19 -19 -19 -18 -18 -18 -19 -19 -19 -19 -19 -19 -19 -18 -18 -18 -18 -18 -18 -17 -17 -16 -15 -14 -13
-19 -18 -18 -18 -19 -19 -19 -19 -19 -19 -19 -18 -18 -18 -19 -20 -19 -19 -19 -19 -19 -19 -18 -18 -18 -19 -18 -18 -18 -19 -19 -18 -18 -18 -18 -18 -18 -18 -18 -17 -16 -14 -14
-19 -19 -19 -19 -19 -19 -19 -19 -19 -19 -19 -18 -19 -19 -20 -20 -20 -20 -20 -19 -19 -19 -19 -19 -19 -18 -18 -18 -18 -18 -18 -18 -18 -18 -18 -18 -18 -18 -18 -17 -17 -16 -14
-20 -20 -20 -20 -20 -20 -20 -20 -19 -19 -19 -19 -20 -20 -20 -20 -20 -20 -20 -19 -19 -19 -19 -19 -19 -19 -18 -18 -16 -16 -17 -17 -18 -18 -18 -18 -18 -18 -17 -18 -18 -17 -16
-21 -21 -20 -21 -21 -20 -20 -20 -20 -19 -20 -20 -20 -21 -20 -20 -20 -20 -20 -19 -19 -19 -19 -18 -18 -18 -18 -18 -17 -16 -17 -17 -18 -18 -18 -18 -18 -17 -17 -17 -17 -17 -17
-20 -21 -21 -21 -21 -20 -20 -20 -20 -20 -20 -21 -21 -21 -21 -21 -20 -20 -20 -20 -20 -19 -19 -19 -18 -17 -17 -17 -17 -17 -17 -17 -17 -17 -17 -17 -17 -17 -17 -17 -17 -17 -17
-21 -21 -21 -21 -21 -21 -21 -20 -20 -21 -21 -21 -21 -21 -21 -21 -21 -21 -21 -21 -20 -20 -19 -19 -18 -18 -17 -17 -17 -16 -16 -16 -16 -16 -16 -17 -17 -17 -17 -17 -17 -17 -17
-21 -22 -21 -21 -21 -21 -21 -21 -21 -22 -22 -22 -21 -21 -21 -21 -21 -21 -21 -21 -21 -20 -20 -19 -19 -18 -18 -17 -17 -17 -17 -16 -16 -16 -16 -16 -16 -16 -17 -17 -17 -18 -18
-22 -22 -22 -21 -21 -21 -21 -22 -22 -22 -22 -22 -21 -21 -21 -20 -21 -21 -21 -21 -21 -20 -20 -20 -19 -19 -18 -18 -18 -18 -17 -17 -16 -16 -16 -16 -16 -16 -16 -17 -17 -17 -17
-22 -22 -22 -21 -22 -22 -22 -22 -23 -23 -23 -23 -23 -22 -22 -21 -21 -21 -21 -21 -22 -22 -22 -21 -21 -20 -20 -20 -19 -19 -18 -17 -17 -17 -17 -16 -17 -16 -17 -18 -17 -17 -17
-22 -22 -22 -22 -22 -22 -22 -23 -23 -24 -24 -24 -24 -24 -24 -23 -22 -22 -22 -22 -23 -22 -22 -22 -22 -21 -21 -21 -21 -21 -20 -20 -19 -18 -18 -17 -17 -17 -18 -18 -19 -17 -17
-22 -22 -22 -22 -23 -23 -24 -24 -24 -24 -25 -25 -25 -25 -25 -24 -24 -24 -24 -24 -23 -23 -22 -22 -22 -21 -21 -21 -21 -21 -21 -22 -22 -21 -19 -19 -18 -18 -18 -19 -19 -18 -17
-23 -22 -23 -23 -24 -24 -24 -24 -25 -25 -25 -26 -26 -26 -26 -26 -26 -25 -24 -23 -23 -23 -23 -23 -22 -22 -21 -21 -21 -21 -21 -21 -21 -22 -22 -20 -19 -19 -19 -19 -20 -19 -17
-23 -23 -24 -24 -24 -24 -24 -25 -25 -25 -26 -26 -27 -27 -27 -27 -26 -26 -24 -24 -25 -25 -24 -23 -23 -23 -23 -22 -22 -22 -22 -22 -22 -21 -21 -21 -21 -20 -19 -18 -19 -20 -18
-24 -24 -24 -24 -24 -24 -25 -25 -25 -25 -26 -26 -26 -27 -27 -26 -26 -26 -26 -26 -26 -25 -24 -24 -24 -23 -23 -23 -23 -23 -23 -23 -23 -23 -22 -22 -21 -21 -21 -20 -19 -19 -19
-24 -24 -24 -24 -24 -25 -25 -25 -25 -25 -26 -26 -26 -26 -27 -26 -26 -26 -27 -26 -25 -25 -24 -24 -23 -23 -23 -23 -23 -23 -23 -23 -23 -23 -23 -23 -23 -22 -22 -21 -20 -20 -20
-24 -24 -24 -24 -24 -24 -25 -25 -25 -26 -26 -26 -26 -27 -27 -27 -27 -26 -27 -26 -25 -24 -24 -23 -23 -23 -23 -23 -23 -23 -23 -23 -23 -23 -23 -23 -23 -22 -22 -22 -22 -22 -21
-24 -24 -24 -24 -24 -24 -25 -25 -26 -26 -26 -26 -27 -27 -27 -26 -26 -26 -26 -25 -24 -24 -24 -23 -23 -22 -22 -22 -22 -23 -22 -22 -22 -22 -22 -22 -22 -22 -22 -22 -22 -22 -22
-24 -24 -24 -24 -24 -25 -25 -26 -26 -26 -25 -26 -27 -26 -26 -26 -26 -26 -26 -25 -24 -24 -23 -23 -23 -23 -23 -23 -23 -23 -23 -23 -23 -23 -22 -22 -22 -22 -22 -22 -22 -22 -22
-24 -24 -24 -24 -25 -25 -25 -26 -26 -25 -27 -26 -26 -26 -26 -26 -26 -26 -25 -25 -24 -24 -24 -23 -23 -23 -23 -23 -23 -23 -23 -23 -22 -22 -22 -22 -22 -23 -23 -23 -23 -22 -22

GFSMW_500_temp_138.txt.gz
Temp
-12 -12 -12 -12 -12 -12 -12 -12 -12 -12 -12 -13 -13 -13 -13 -13 -13 -13 -13 -13 -13 -13 -13 -13 -13 -13 -13 -12 -12 -12 -13 -13 -13 -13 -13 -13 -13 -13 -13 -12 -12 -12 -12
-12 -12 -12 -12 -12 -12 -12 -12 -13 -13 -13 -13 -13 -13 -14 -14 -14 -14 -14 -14 -14 -14 -14 -14 -13 -13 -13 -13 -12 -12 -13 -15 -14 -14 -13 -13 -13 -14 -14 -14 -13 -13 -13
-12 -13 -13 -13 -14 -13 -13 -13 -13 -14 -14 -14 -14 -14 -15 -15 -14 -15 -14 -15 -15 -15 -15 -15 -14 -14 -14 -14 -14 -13 -13 -14 -16 -15 -15 -14 -13 -14 -14 -15 -14 -14 -13
-13 -13 -13 -14 -14 -14 -14 -14 -15 -15 -15 -15 -15 -15 -15 -15 -15 -15 -16 -16 -16 -16 -16 -16 -17 -17 -16 -16 -15 -15 -14 -14 -16 -19 -19 -17 -16 -16 -14 -15 -15 -15 -14
-14 -14 -14 -14 -15 -16 -16 -16 -16 -16 -16 -16 -16 -16 -16 -16 -16 -16 -16 -17 -17 -18 -17 -17 -18 -18 -18 -18 -18 -18 -18 -17 -17 -18 -20 -20 -19 -19 -18 -18 -16 -15 -15
-16 -16 -16 -16 -17 -17 -17 -17 -17 -17 -17 -17 -17 -17 -17 -17 -17 -17 -18 -18 -18 -18 -18 -18 -18 -18 -18 -18 -18 -18 -18 -18 -18 -18 -19 -19 -20 -19 -19 -18 -18 -18 -16
-17 -17 -17 -18 -18 -18 -18 -18 -18 -18 -18 -18 -18 -18 -18 -18 -18 -18 -18 -18 -19 -19 -19 -19 -19 -18 -19 -18 -18 -18 -18 -18 -18 -18 -18 -19 -19 -19 -19 -18 -18 -18 -17
-18 -19 -18 -19 -19 -19 -19 -19 -18 -19 -18 -19 -19 -19 -18 -18 -18 -18 -18 -19 -19 -19 -19 -19 -19 -19 -19 -18 -18 -18 -18 -18 -18 -18 -18 -18 -18 -19 -19 -19 -19 -18 -18
-19 -19 -19 -20 -20 -20 -19 -19 -19 -19 -19 -19 -19 -19 -19 -19 -19 -19 -19 -19 -19 -19 -19 -19 -19 -19 -19 -19 -19 -18 -18 -18 -18 -18 -18 -18 -18 -18 -18 -19 -19 -18 -18
-19 -20 -20 -20 -20 -20 -20 -20 -20 -20 -20 -20 -20 -19 -19 -19 -19 -19 -19 -20 -20 -20 -20 -19 -19 -19 -19 -19 -18 -18 -18 -18 -18 -17 -17 -17 -17 -18 -18 -18 -19 -18 -18
-20 -20 -20 -20 -20 -20 -21 -21 -21 -21 -20 -20 -20 -20 -19 -20 -20 -20 -20 -20 -20 -20 -20 -20 -19 -19 -18 -18 -18 -18 -18 -18 -18 -18 -16 -17 -17 -17 -17 -17 -18 -18 -18
-19 -21 -20 -20 -20 -21 -21 -21 -21 -21 -21 -20 -20 -20 -20 -20 -21 -21 -20 -21 -21 -21 -21 -20 -19 -19 -19 -18 -18 -18 -17 -17 -17 -17 -17 -16 -16 -17 -17 -17 -18 -18 -18
-19 -20 -22 -21 -20 -21 -21 -21 -21 -21 -21 -20 -20 -21 -21 -21 -21 -21 -21 -20 -20 -21 -21 -21 -20 -20 -19 -19 -19 -18 -17 -17 -17 -16 -16 -16 -16 -17 -17 -18 -17 -17 -17
-20 -20 -21 -21 -21 -22 -21 -21 -21 -21 -21 -21 -21 -21 -22 -21 -21 -21 -21 -20 -20 -21 -21 -21 -21 -20 -20 -20 -20 -19 -18 -17 -17 -17 -16 -16 -16 -16 -17 -17 -17 -17 -17
-21 -21 -22 -22 -22 -22 -22 -22 -22 -22 -22 -22 -22 -22 -22 -22 -22 -22 -21 -21 -21 -21 -21 -22 -22 -22 -22 -22 -21 -21 -20 -19 -18 -17 -17 -17 -16 -16 -16 -16 -16 -16 -16
-22 -22 -22 -22 -22 -22 -22 -22 -22 -22 -22 -23 -23 -23 -23 -24 -23 -23 -23 -22 -22 -22 -22 -23 -23 -22 -22 -22 -22 -21 -21 -21 -20 -19 -18 -17 -17 -16 -16 -17 -17 -17 -16
-23 -23 -23 -22 -22 -22 -22 -22 -22 -23 -23 -24 -24 -24 -24 -24 -24 -24 -24 -24 -24 -24 -24 -23 -23 -23 -22 -22 -22 -22 -21 -21 -21 -21 -21 -21 -20 -18 -18 -17 -17 -17 -17
-23 -23 -23 -22 -22 -22 -23 -23 -23 -24 -24 -24 -24 -25 -25 -25 -25 -26 -26 -25 -25 -25 -24 -24 -23 -23 -23 -22 -22 -22 -22 -21 -21 -22 -22 -23 -22 -21 -19 -19 -18 -18 -18
-23 -23 -23 -23 -22 -23 -24 -24 -24 -24 -25 -25 -25 -25 -26 -26 -26 -27 -27 -27 -26 -25 -25 -24 -24 -24 -24 -23 -23 -22 -23 -23 -22 -22 -22 -22 -22 -22 -20 -19 -19 -19 -19
-23 -23 -23 -23 -24 -24 -24 -24 -24 -24 -25 -25 -25 -25 -26 -26 -26 -27 -28 -27 -26 -26 -26 -26 -25 -24 -24 -24 -24 -24 -23 -23 -23 -23 -23 -23 -23 -22 -21 -22 -21 -20 -20
-24 -24 -24 -24 -24 -24 -24 -24 -24 -25 -25 -25 -25 -26 -26 -26 -27 -27 -27 -27 -27 -27 -27 -26 -25 -25 -24 -24 -24 -24 -24 -24 -23 -23 -23 -23 -23 -23 -23 -22 -21 -21 -21
-24 -24 -25 -24 -24 -24 -24 -24 -24 -25 -25 -25 -26 -26 -26 -27 -26 -27 -27 -27 -27 -27 -27 -26 -25 -24 -24 -24 -24 -23 -23 -23 -23 -23 -23 -23 -23 -23 -22 -22 -22 -23 -23
-24 -25 -25 -24 -24 -24 -24 -24 -24 -25 -25 -26 -26 -26 -27 -27 -27 -27 -27 -27 -27 -27 -26 -25 -24 -24 -24 -23 -23 -23 -23 -23 -23 -23 -23 -23 -22 -22 -22 -22 -22 -22 -22
-25 -25 -24 -24 -24 -24 -24 -24 -25 -25 -26 -26 -26 -26 -27 -27 -27 -27 -27 -27 -27 -26 -25 -25 -24 -23 -23 -23 -22 -22 -22 -22 -22 -22 -22 -22 -22 -22 -22 -22 -22 -22 -22
-24 -24 -24 -24 -24 -24 -24 -25 -25 -25 -26 -26 -26 -26 -27 -27 -26 -27 -27 -27 -26 -26 -25 -25 -24 -24 -24 -23 -23 -23 -23 -23 -23 -22 -22 -22 -22 -22 -22 -22 -22 -22 -22
-24 -24 -24 -24 -24 -24 -25 -25 -25 -25 -26 -26 -26 -27 -27 -26 -26 -26 -26 -26 -26 -25 -25 -25 -24 -24 -24 -24 -24 -24 -23 -23 -23 -23 -23 -23 -23 -23 -23 -23 -23 -23 -23

GFSMW_500_temp_141.txt.gz
Temp
-10 -11 -12 -12 -11 -12 -12 -12 -12 -12 -13 -13 -13 -13 -13 -13 -13 -13 -13 -13 -13 -13 -13 -12 -13 -13 -13 -12 -12 -12 -12 -13 -13 -13 -13 -13 -13 -13 -13 -13 -14 -13 -13
-11 -11 -12 -11 -11 -12 -12 -12 -13 -13 -13 -13 -14 -14 -14 -14 -14 -14 -14 -14 -14 -14 -14 -14 -14 -14 -13 -13 -13 -13 -13 -13 -13 -13 -14 -14 -14 -13 -13 -14 -14 -14 -14
-11 -11 -12 -12 -13 -13 -13 -13 -14 -14 -14 -14 -15 -15 -15 -15 -15 -15 -15 -15 -15 -15 -15 -14 -14 -14 -14 -14 -14 -14 -13 -13 -13 -13 -14 -15 -14 -15 -15 -14 -14 -14 -14
-12 -12 -13 -14 -15 -15 -15 -15 -15 -15 -15 -16 -16 -16 -16 -16 -16 -16 -16 -16 -15 -15 -15 -15 -15 -15 -15 -15 -15 -14 -14 -14 -14 -15 -15 -16 -17 -16 -15 -15 -14 -14 -14
-13 -14 -15 -16 -17 -16 -16 -16 -16 -16 -16 -17 -17 -17 -17 -17 -17 -17 -16 -16 -16 -16 -16 -16 -16 -16 -16 -16 -16 -17 -16 -16 -16 -16 -17 -18 -18 -19 -17 -17 -17 -16 -15
-16 -16 -17 -16 -17 -17 -17 -17 -17 -18 -18 -18 -18 -18 -18 -18 -18 -17 -17 -17 -17 -17 -17 -17 -17 -17 -17 -17 -17 -17 -17 -17 -17 -17 -17 -18 -18 -19 -19 -18 -17 -18 -17
-17 -17 -17 -17 -17 -18 -18 -18 -18 -19 -19 -19 -19 -19 -18 -18 -18 -18 -18 -18 -18 -18 -18 -18 -18 -18 -18 -18 -18 -18 -19 -19 -19 -18 -18 -18 -18 -18 -19 -18 -18 -18 -17
-18 -18 -18 -18 -18 -18 -19 -19 -19 -19 -19 -19 -19 -19 -19 -19 -19 -19 -19 -19 -19 -19 -19 -18 -18 -18 -19 -18 -19 -19 -19 -19 -19 -18 -18 -18 -18 -18 -18 -18 -18 -18 -18
-18 -18 -18 -19 -19 -19 -20 -20 -19 -20 -20 -20 -20 -19 -19 -19 -20 -20 -19 -19 -19 -19 -19 -19 -19 -19 -19 -19 -19 -19 -19 -19 -19 -19 -18 -18 -18 -18 -18 -18 -18 -18 -18
-19 -19 -19 -18 -19 -20 -20 -20 -20 -20 -20 -20 -20 -20 -20 -20 -20 -20 -20 -19 -19 -20 -20 -19 -19 -19 -20 -19 -19 -19 -19 -19 -18 -18 -18 -18 -18 -18 -17 -17 -17 -18 -18
-20 -19 -19 -20 -20 -20 -21 -21 -21 -20 -20 -21 -20 -20 -21 -21 -20 -20 -20 -20 -20 -20 -20 -20 -20 -20 -20 -20 -20 -19 -19 -19 -18 -18 -18 -18 -18 -17 -17 -17 -17 -17 -17
-20 -20 -20 -20 -20 -21 -22 -22 -22 -21 -21 -21 -21 -21 -21 -21 -20 -20 -20 -21 -21 -20 -20 -20 -21 -21 -21 -21 -20 -20 -19 -19 -18 -18 -17 -17 -17 -17 -17 -17 -16 -17 -17
-20 -20 -21 -21 -20 -21 -22 -22 -22 -21 -22 -21 -21 -21 -21 -21 -21 -21 -21 -21 -21 -21 -20 -20 -20 -21 -20 -20 -20 -20 -20 -19 -19 -18 -18 -17 -17 -17 -16 -16 -16 -16 -16
-21 -21 -21 -22 -22 -21 -22 -22 -22 -22 -22 -22 -21 -21 -21 -21 -21 -21 -22 -21 -22 -21 -21 -21 -21 -21 -21 -21 -21 -22 -21 -21 -20 -19 -18 -18 -18 -17 -16 -16 -16 -16 -16
-21 -21 -21 -22 -22 -22 -23 -23 -22 -22 -22 -22 -22 -22 -22 -22 -22 -22 -23 -23 -23 -23 -23 -22 -22 -22 -22 -23 -23 -22 -22 -22 -21 -21 -20 -19 -18 -17 -17 -16 -16 -16 -16
-21 -22 -22 -23 -23 -23 -23 -23 -23 -22 -22 -22 -22 -23 -23 -23 -24 -24 -24 -24 -24 -24 -24 -23 -24 -24 -24 -23 -23 -23 -23 -23 -22 -22 -22 -20 -19 -19 -19 -18 -17 -17 -17
-23 -23 -23 -23 -23 -24 -23 -23 -23 -23 -23 -22 -23 -23 -24 -24 -24 -24 -24 -25 -25 -25 -25 -25 -25 -25 -24 -24 -24 -23 -23 -23 -22 -22 -22 -21 -21 -22 -22 -20 -19 -19 -17
-24 -24 -23 -24 -24 -23 -23 -23 -23 -23 -23 -23 -24 -24 -24 -25 -25 -25 -25 -26 -26 -26 -26 -26 -26 -25 -25 -25 -24 -24 -23 -23 -23 -23 -22 -22 -22 -22 -22 -22 -21 -20 -19
-24 -24 -24 -24 -24 -24 -24 -24 -24 -24 -24 -24 -24 -24 -25 -25 -25 -26 -26 -26 -27 -28 -27 -27 -27 -26 -26 -25 -25 -24 -23 -24 -24 -23 -23 -22 -23 -22 -22 -23 -22 -22 -21
-24 -24 -24 -24 -24 -24 -24 -24 -24 -24 -24 -24 -25 -25 -25 -25 -26 -26 -26 -27 -27 -28 -28 -27 -27 -27 -26 -25 -25 -24 -24 -24 -24 -24 -24 -23 -23 -22 -23 -22 -22 -22 -22
-24 -24 -24 -24 -24 -24 -24 -25 -25 -24 -24 -24 -24 -25 -25 -26 -26 -26 -27 -27 -27 -27 -28 -27 -27 -27 -26 -25 -25 -24 -24 -24 -23 -23 -23 -23 -23 -23 -22 -23 -22 -22 -22
-24 -24 -24 -24 -24 -25 -25 -25 -24 -24 -24 -24 -25 -25 -26 -26 -26 -27 -27 -27 -28 -28 -28 -28 -28 -27 -26 -26 -25 -24 -24 -24 -23 -23 -23 -23 -22 -22 -22 -22 -22 -22 -22
-25 -25 -24 -24 -25 -25 -25 -24 -24 -24 -24 -25 -25 -26 -26 -26 -26 -27 -27 -28 -27 -27 -27 -27 -27 -27 -26 -26 -25 -25 -24 -24 -23 -23 -23 -23 -23 -23 -23 -23 -23 -22 -22
-24 -24 -24 -25 -25 -25 -25 -24 -24 -24 -25 -25 -26 -26 -26 -26 -26 -27 -27 -27 -27 -27 -27 -27 -27 -26 -26 -25 -25 -24 -24 -24 -23 -23 -23 -23 -23 -23 -23 -23 -22 -22 -22
-24 -25 -25 -25 -25 -25 -25 -25 -25 -25 -25 -25 -26 -26 -26 -27 -27 -27 -27 -27 -27 -27 -27 -27 -26 -26 -25 -25 -24 -24 -24 -24 -23 -23 -23 -23 -23 -23 -23 -23 -23 -23 -23
-25 -25 -25 -25 -25 -25 -25 -25 -25 -25 -25 -25 -26 -26 -26 -26 -27 -27 -26 -26 -27 -27 -27 -26 -26 -26 -26 -25 -25 -24 -24 -24 -24 -24 -24 -24 -24 -24 -24 -23 -23 -23 -23

GFSMW_500_temp_144.txt.gz
Temp
-11 -11 -11 -11 -12 -12 -12 -12 -12 -12 -13 -13 -14 -14 -14 -14 -13 -13 -13 -13 -13 -13 -13 -13 -13 -13 -13 -13 -13 -13 -13 -13 -13 -13 -13 -13 -13 -13 -13 -13 -13 -13 -13
-11 -12 -12 -12 -12 -12 -12 -12 -13 -13 -14 -15 -15 -15 -15 -15 -15 -15 -14 -14 -14 -14 -14 -14 -14 -14 -14 -14 -14 -14 -14 -14 -14 -14 -14 -13 -13 -13 -13 -13 -13 -13 -13
-12 -12 -12 -13 -13 -13 -13 -13 -13 -14 -15 -16 -16 -16 -16 -16 -16 -16 -16 -15 -15 -15 -15 -15 -15 -15 -15 -15 -14 -14 -14 -14 -14 -14 -14 -14 -14 -14 -14 -13 -13 -13 -13
-13 -13 -13 -14 -14 -14 -14 -15 -16 -16 -16 -16 -16 -16 -17 -17 -17 -17 -17 -16 -16 -16 -16 -16 -16 -15 -15 -15 -15 -15 -15 -15 -15 -14 -14 -14 -14 -15 -15 -15 -14 -14 -14
-14 -14 -15 -16 -16 -16 -17 -17 -17 -17 -17 -17 -18 -18 -18 -18 -18 -18 -18 -17 -17 -17 -17 -17 -16 -16 -16 -16 -16 -16 -16 -15 -15 -16 -16 -15 -15 -16 -15 -16 -17 -16 -16
-15 -16 -17 -17 -18 -17 -17 -18 -18 -18 -18 -19 -18 -18 -19 -19 -19 -19 -19 -18 -18 -18 -17 -17 -17 -17 -17 -16 -16 -16 -17 -16 -17 -17 -17 -17 -17 -17 -17 -17 -17 -18 -18
-17 -17 -18 -18 -18 -18 -18 -18 -19 -19 -19 -19 -19 -19 -19 -20 -19 -19 -19 -19 -19 -19 -19 -18 -18 -18 -18 -18 -18 -18 -18 -17 -17 -17 -17 -18 -18 -18 -18 -17 -18 -18 -18
-17 -18 -18 -18 -18 -19 -19 -19 -19 -19 -19 -19 -19 -19 -19 -19 -19 -19 -19 -19 -19 -19 -19 -19 -19 -19 -19 -18 -18 -18 -18 -18 -18 -18 -18 -18 -19 -19 -19 -19 -18 -18 -18
-18 -18 -18 -19 -19 -19 -19 -20 -19 -19 -19 -19 -20 -20 -20 -19 -19 -20 -19 -19 -19 -19 -19 -19 -20 -19 -19 -19 -19 -19 -19 -19 -19 -19 -19 -19 -19 -19 -19 -19 -18 -18 -18
-19 -19 -19 -19 -19 -20 -19 -20 -20 -20 -19 -20 -20 -21 -20 -20 -20 -20 -20 -20 -20 -20 -20 -20 -19 -19 -20 -20 -20 -20 -20 -20 -20 -20 -19 -19 -19 -18 -18 -18 -18 -18 -18
-20 -20 -20 -20 -19 -20 -19 -20 -20 -20 -20 -21 -22 -21 -21 -21 -21 -20 -21 -21 -21 -20 -20 -20 -20 -21 -20 -20 -20 -20 -20 -20 -20 -20 -19 -19 -18 -18 -18 -18 -17 -17 -17
-20 -20 -21 -20 -21 -20 -20 -21 -21 -21 -21 -22 -22 -21 -21 -21 -21 -21 -21 -21 -21 -21 -20 -21 -21 -20 -20 -20 -21 -21 -20 -20 -20 -20 -20 -19 -19 -19 -18 -17 -17 -17 -17
-21 -21 -21 -21 -21 -22 -22 -22 -22 -22 -21 -22 -22 -22 -22 -22 -21 -22 -21 -21 -21 -21 -21 -21 -21 -21 -20 -21 -21 -21 -21 -21 -21 -21 -20 -19 -19 -18 -18 -17 -17 -17 -17
-21 -21 -21 -22 -22 -22 -22 -22 -22 -22 -22 -23 -23 -23 -22 -22 -22 -22 -22 -22 -22 -22 -22 -23 -23 -22 -22 -21 -21 -22 -22 -22 -22 -22 -21 -20 -20 -19 -18 -18 -18 -17 -16
-22 -22 -22 -22 -22 -22 -23 -23 -22 -23 -23 -23 -23 -23 -22 -23 -23 -23 -23 -23 -23 -24 -24 -24 -23 -23 -23 -22 -23 -24 -23 -23 -23 -23 -22 -22 -21 -20 -19 -18 -17 -17 -17
-23 -22 -23 -22 -23 -23 -23 -23 -23 -23 -23 -23 -23 -23 -23 -23 -23 -24 -24 -24 -24 -24 -25 -24 -24 -24 -24 -24 -24 -25 -24 -24 -23 -24 -23 -23 -22 -22 -21 -20 -19 -19 -19
-23 -23 -23 -23 -23 -23 -23 -23 -24 -23 -23 -24 -24 -24 -24 -24 -24 -24 -24 -25 -25 -25 -25 -26 -25 -25 -25 -25 -25 -25 -25 -24 -24 -24 -24 -23 -23 -22 -22 -22 -21 -21 -21
-23 -23 -23 -23 -23 -24 -24 -24 -24 -24 -24 -24 -24 -24 -24 -24 -25 -25 -25 -25 -25 -26 -26 -26 -26 -27 -27 -26 -26 -25 -25 -25 -25 -25 -24 -23 -24 -23 -22 -22 -23 -22 -22
-23 -24 -24 -24 -24 -24 -24 -24 -24 -24 -25 -25 -25 -25 -25 -25 -25 -25 -26 -26 -26 -26 -26 -27 -28 -28 -28 -27 -27 -26 -26 -25 -25 -25 -24 -24 -24 -23 -23 -22 -22 -23 -23
-24 -24 -24 -24 -24 -24 -24 -24 -24 -25 -25 -25 -25 -25 -25 -25 -25 -25 -26 -26 -26 -27 -27 -27 -28 -28 -28 -28 -27 -27 -26 -25 -25 -25 -24 -24 -23 -23 -22 -22 -22 -22 -22
-24 -24 -24 -24 -25 -24 -24 -24 -24 -25 -25 -25 -25 -25 -25 -25 -25 -26 -26 -26 -27 -27 -27 -28 -28 -28 -28 -28 -27 -27 -26 -26 -26 -25 -25 -24 -23 -23 -22 -22 -23 -22 -23
-25 -24 -25 -25 -24 -24 -24 -24 -25 -25 -25 -25 -25 -25 -25 -25 -26 -26 -26 -27 -27 -27 -27 -28 -28 -28 -28 -27 -27 -27 -26 -26 -25 -24 -24 -24 -23 -23 -23 -23 -23 -22 -22
-25 -24 -25 -25 -24 -24 -25 -25 -25 -25 -25 -25 -25 -25 -25 -26 -26 -26 -27 -27 -27 -28 -28 -28 -28 -28 -28 -27 -27 -27 -26 -25 -25 -24 -24 -24 -24 -24 -23 -23 -23 -23 -22
-25 -25 -25 -25 -25 -25 -26 -25 -25 -25 -25 -25 -25 -25 -26 -26 -26 -26 -27 -27 -27 -28 -27 -27 -27 -27 -27 -27 -27 -26 -25 -25 -25 -24 -24 -24 -24 -24 -24 -24 -23 -23 -23
-25 -24 -25 -25 -25 -26 -25 -25 -25 -25 -25 -25 -25 -25 -26 -26 -26 -26 -27 -27 -27 -27 -27 -27 -27 -27 -27 -26 -26 -26 -25 -25 -25 -24 -24 -24 -23 -23 -23 -23 -23 -23 -23
-25 -25 -25 -26 -26 -25 -25 -25 -25 -25 -25 -25 -26 -26 -26 -26 -27 -26 -26 -26 -27 -27 -27 -27 -27 -26 -26 -26 -26 -26 -25 -25 -25 -25 -24 -24 -24 -24 -24 -24 -24 -24 -24

GFSMW_500_temp_150.txt.gz
Temp
-12 -12 -13 -13 -13 -12 -12 -12 -12 -12 -12 -12 -12 -13 -13 -13 -13 -14 -14 -15 -15 -15 -15 -16 -16 -16 -15 -15 -15 -15 -15 -14 -14 -14 -14 -14 -14 -14 -14 -14 -14 -14 -14
-12 -12 -12 -12 -12 -12 -12 -12 -12 -12 -12 -12 -12 -13 -13 -13 -14 -14 -15 -16 -16 -17 -17 -17 -17 -16 -16 -16 -16 -16 -16 -15 -15 -15 -14 -14 -15 -15 -15 -15 -15 -14 -14
-12 -12 -12 -12 -12 -13 -13 -13 -13 -13 -13 -13 -13 -14 -14 -15 -16 -16 -17 -17 -17 -18 -18 -17 -17 -17 -17 -17 -17 -17 -17 -17 -16 -16 -16 -15 -15 -16 -15 -15 -15 -15 -14
-12 -12 -12 -13 -13 -13 -14 -14 -14 -14 -14 -14 -15 -15 -16 -17 -17 -17 -18 -18 -18 -18 -18 -18 -18 -18 -18 -18 -18 -18 -18 -17 -17 -17 -17 -16 -16 -16 -16 -16 -16 -16 -15
-13 -13 -13 -14 -14 -14 -15 -15 -15 -16 -16 -16 -16 -17 -17 -18 -18 -18 -18 -18 -18 -18 -18 -18 -18 -18 -18 -18 -18 -18 -18 -18 -18 -18 -17 -17 -17 -17 -16 -16 -16 -16 -16
-14 -14 -14 -15 -15 -15 -16 -16 -16 -17 -17 -17 -17 -17 -18 -19 -19 -19 -19 -18 -18 -19 -19 -19 -19 -18 -18 -18 -18 -18 -18 -18 -18 -18 -18 -17 -17 -17 -17 -16 -17 -17 -16
-14 -14 -15 -15 -16 -16 -17 -17 -17 -17 -18 -18 -18 -18 -19 -19 -19 -19 -19 -19 -19 -19 -19 -20 -19 -19 -19 -19 -18 -18 -18 -18 -18 -18 -18 -18 -18 -18 -18 -17 -17 -17 -17
-15 -15 -16 -17 -17 -18 -18 -19 -18 -18 -19 -19 -19 -19 -19 -19 -19 -20 -20 -19 -19 -20 -20 -20 -20 -20 -19 -19 -19 -19 -19 -18 -18 -18 -18 -19 -18 -18 -18 -18 -18 -18 -18
-16 -17 -18 -18 -19 -19 -19 -19 -19 -19 -19 -19 -19 -20 -20 -20 -20 -20 -20 -20 -20 -20 -20 -21 -21 -20 -20 -20 -19 -19 -19 -19 -19 -19 -19 -20 -20 -20 -19 -19 -19 -18 -18
-17 -18 -18 -19 -19 -20 -20 -21 -20 -20 -20 -20 -20 -20 -21 -20 -21 -21 -21 -21 -21 -21 -22 -21 -21 -21 -21 -21 -20 -20 -20 -20 -19 -20 -20 -20 -21 -20 -20 -20 -19 -19 -19
-18 -19 -20 -20 -20 -20 -21 -21 -21 -21 -21 -21 -21 -21 -21 -21 -21 -22 -22 -22 -22 -23 -22 -22 -21 -21 -21 -21 -21 -21 -20 -20 -21 -21 -21 -21 -21 -21 -21 -20 -20 -20 -19
-18 -19 -20 -20 -20 -21 -21 -21 -22 -22 -22 -22 -22 -22 -22 -23 -22 -23 -22 -22 -23 -23 -23 -23 -22 -22 -22 -22 -22 -22 -22 -22 -22 -22 -22 -22 -22 -21 -21 -21 -21 -20 -20
-19 -20 -20 -21 -21 -21 -22 -21 -22 -22 -22 -22 -22 -23 -23 -23 -23 -23 -23 -23 -23 -23 -23 -23 -23 -23 -23 -23 -23 -23 -23 -23 -23 -23 -23 -23 -23 -22 -22 -21 -21 -21 -21
-20 -20 -21 -21 -21 -21 -22 -22 -22 -22 -22 -23 -23 -23 -23 -23 -23 -23 -23 -23 -23 -24 -24 -24 -24 -24 -24 -24 -24 -24 -24 -24 -24 -24 -24 -24 -24 -24 -23 -23 -23 -22 -21
-21 -21 -21 -22 -22 -22 -22 -23 -23 -23 -23 -23 -23 -23 -23 -23 -24 -24 -24 -24 -24 -24 -25 -24 -24 -25 -25 -25 -25 -25 -25 -25 -25 -24 -25 -25 -25 -25 -24 -25 -24 -24 -23
-22 -22 -22 -22 -22 -23 -23 -23 -23 -24 -23 -23 -23 -23 -24 -24 -24 -24 -24 -25 -25 -25 -25 -25 -25 -25 -25 -26 -26 -26 -26 -26 -25 -25 -25 -26 -25 -25 -25 -25 -25 -24 -24
-22 -23 -24 -24 -24 -24 -24 -24 -24 -24 -24 -23 -24 -24 -24 -24 -24 -24 -25 -25 -25 -25 -26 -25 -26 -26 -26 -26 -26 -26 -26 -26 -26 -26 -26 -26 -26 -25 -25 -25 -25 -24 -24
-23 -24 -24 -24 -24 -24 -24 -24 -24 -24 -24 -24 -24 -24 -24 -24 -25 -25 -25 -25 -25 -26 -26 -26 -26 -26 -26 -27 -27 -27 -27 -27 -28 -28 -28 -27 -26 -26 -26 -25 -25 -24 -24
-24 -24 -24 -24 -24 -24 -24 -24 -24 -24 -24 -25 -24 -25 -24 -25 -25 -25 -25 -26 -26 -26 -26 -26 -26 -27 -27 -27 -27 -27 -28 -28 -28 -29 -28 -28 -27 -26 -26 -25 -25 -25 -24
-24 -24 -24 -24 -24 -25 -25 -24 -24 -25 -24 -25 -25 -24 -24 -25 -25 -26 -26 -26 -26 -26 -26 -26 -27 -27 -27 -27 -28 -28 -28 -28 -29 -28 -28 -28 -27 -26 -26 -25 -25 -25 -24
-25 -25 -25 -25 -25 -25 -25 -24 -25 -25 -25 -25 -25 -25 -25 -25 -25 -26 -25 -25 -25 -26 -26 -27 -27 -27 -28 -28 -27 -28 -28 -28 -28 -28 -28 -27 -27 -26 -26 -26 -26 -25 -24
-25 -25 -25 -25 -25 -25 -25 -25 -25 -25 -25 -25 -25 -25 -25 -26 -26 -25 -25 -25 -26 -27 -26 -27 -27 -27 -27 -27 -28 -28 -28 -28 -28 -28 -28 -27 -27 -27 -26 -26 -25 -25 -24
-25 -25 -25 -25 -25 -25 -25 -25 -25 -25 -25 -25 -25 -25 -26 -26 -26 -26 -26 -26 -26 -27 -27 -27 -27 -27 -27 -28 -28 -28 -28 -28 -28 -28 -27 -27 -26 -26 -26 -25 -25 -25 -24
-25 -25 -25 -25 -25 -25 -25 -26 -25 -25 -25 -25 -25 -26 -26 -26 -26 -26 -26 -26 -26 -26 -27 -27 -27 -27 -28 -28 -27 -27 -28 -27 -27 -27 -27 -26 -26 -26 -26 -25 -25 -25 -25
-25 -25 -25 -25 -25 -25 -25 -25 -26 -25 -25 -26 -26 -26 -26 -26 -26 -26 -26 -26 -26 -27 -27 -27 -28 -27 -28 -27 -27 -27 -27 -27 -27 -27 -27 -26 -26 -26 -26 -25 -25 -25 -25
-25 -26 -26 -26 -26 -25 -26 -26 -26 -26 -26 -26 -26 -26 -26 -26 -26 -26 -26 -26 -27 -27 -27 -27 -27 -27 -27 -27 -27 -27 -27 -27 -27 -27 -26 -26 -26 -26 -26 -25 -25 -25 -25